Regional Weather Roundup
Issued by NWS Portland, ME

Current Version | Previous Version | Text Only | Print | Product List | Glossary On
Versions: 1 2 3 4 5 6 7 8 9 10 11 12 13 14 15 16 17 18 19 20 21 22 23 24 25 26 27 28 29 30 31 32 33 34 35 36 37 38 39 40 41 42 43 44 45 46 47 48 49 50
000
ASUS41 KGYX 250810
RWRGYX
WEATHER ROUNDUP FOR MAINE AND NEW HAMPSHIRE
NATIONAL WEATHER SERVICE GRAY ME
400 AM EDT FRI JUL 25 2014

MEZ002-005-006-010-012-015-018-020-021-024-026-027-029-250900-
MAINE

CITY           SKY/WX    TMP DP  RH WIND       PRES   REMARKS
PORTLAND       PTCLDY    55  52  89 NW5       29.92R
SANFORD        PTCLDY    54  48  82 NW6       29.92S
BAR HARBOR     CLEAR     55  54  94 CALM      29.87S
WISCASSET      PTCLDY    55  52  89 CALM      29.92S
ROCKLAND       CLEAR     55  52  88 W3        29.88R
FRYEBURG       PTCLDY    48  46  93 CALM      29.94R FOG
LEWISTONAUBURN CLEAR     52  46  82 CALM      29.92S
AUGUSTA        CLEAR     57  50  77 NW6       29.91S
WATERVILLE     CLEAR     52  48  87 CALM      29.87R
BANGOR         CLEAR     53  49  86 CALM      29.89R
GREENVILLE       N/A     54  49  83 NW6       29.88F
MILLINOCKET    CLEAR     60  50  69 W5        29.87S
HOULTON        CLEAR     47  44  90 CALM      29.84S
PRESQUE ISLE   CLEAR     46  43  87 CALM      29.85S
FRENCHVILLE    PTCLDY    51  47  86 W5        29.83S
CARIBOU        CLEAR     51  48  89 SW3       29.83S
$$

NHZ002-005-008-009-011-012-014-250900-
NEW HAMPSHIRE

CITY           SKY/WX    TMP DP  RH WIND       PRES   REMARKS
PORTSMOUTH     MOCLDY    59  55  87 NW3       29.91S
ROCHESTER      PTCLDY    56  52  86 NW7       29.92S
NASHUA         PTCLDY    55  53  93 NW6       29.94S
MANCHESTER     PTCLDY    59  51  75 N7        29.93R
CONCORD        CLEAR     50  49  96 CALM      29.95R
LACONIA        CLEAR     54  48  82 CALM      29.94S
PLYMOUTH       FAIR      49  48  96 CALM      29.96S
BERLIN         MOCLDY    45  43  93 CALM      29.97S FOG
WHITEFIELD     PTCLDY    45  43  93 CALM      29.97S
JAFFREY        CLEAR     50  48  93 CALM      29.97S
LEBANON        CLOUDY    51  48  89 CALM      29.97S
MT WASHINGTON  FOG       41  41 100 NW35G44     N/A  VSB 0
$$

VTZ005-007-008-250900-
VERMONT

CITY           SKY/WX    TMP DP  RH WIND       PRES   REMARKS
ST JOHNSBURY     N/A     50  49  96 MISG      29.96S
MONTPELIER     CLEAR     48  47  96 CALM      30.01S
BURLINGTON     PTCLDY    55  51  86 CALM      29.96R
$$

MAZ007-012-024-CTZ003-RIZ002-NYZ038-NYZ072-250900-
SOUTHERN NEW ENGLAND AND NY

CITY           SKY/WX    TMP DP  RH WIND       PRES   REMARKS
BOSTON         MOCLDY    64  52  64 NW12      29.92R
WORCESTER      PTCLDY    60  49  66 NW8       29.96R
NANTUCKET      PTCLDY    65  62  90 N9        29.89R
PROVIDENCE     MOCLDY    66  55  67 N9        29.93R
HARTFORD       PTCLDY    59  55  87 CALM      29.95R
ALBANY         CLEAR     58  50  75 W3        29.99S
NEW YORK CITY  PTCLDY    69  54  58 N9        29.94S
$$

ANZ081-ANZ082-ANZ150-NHZ014-MEZ023>029-250900-
COASTAL MARINE OBSERVATIONS

STATION/POSITION TIME  TEMP    WIND        PRES    WAVE
                       AIR SEA DIR/SP/G            HT/PER
                 (UTC) (F)     (DEG/KT/KT) (MB)    (FT/S)
MOUNT DESERT ROC 0800   58                 1011.2R
MATINICUS ROCK   0800          310/ 11/ 11 1011.5R
PORTLAND WX BUOY 0800   62 63  340/  6/  8 1012.8R   1/ 9
WELLS            0800   59 60  350/  4/  5 1012.0F
ISLE OF SHOALS   0800   62     350/  9/ 10 1012.4R
JEFFREYS LEDGE   0800      65                N/A     2/ 8
CASHES LEDGE BUO 0800   66 66  VRB 12/ 14  1011.3R   2/ 8
$$

.............KEY..............
   WCI - WIND CHILL
   TC  - TEMPERATURE IN CELSIUS
   VSB - VISIBILITY IN MILES
   HX  - HEAT INDEX
   FAIR- INDICATES FEW OR NO CLOUDS BELOW 12,000 FT, WITH NO
         SIGNIFICANT WEATHER AND/OR OBSTRUCTIONS TO VISIBILITY.




USA.gov is the U.S. government's official web portal to all federal, state and local government web resources and services.